sat.trackr.live / text

‹ back to catalog

STARLINK-3743

NORAD 52118 · 2022-029AG

PAYLOAD ACTIVE UNKNOWN

§ Identity

Operator
Country
US
Launch date
2022-03-19
Launch site
AFETR
Launch vehicle
Mass (kg)
RCS (m²)

Purposes: comms

External: N2YO · Heavens-Above · Gunter

§ Orbital elements

Epoch: 2026-05-25T02:40:37.991712Z

Period
95.44 min
Inclination
53.2150°
Eccentricity
0.0001242
Mean motion
15.08857652 rev/d
Perigee alt
538.8 km
Apogee alt
540.5 km
Semi-major
6,917.8 km
B*
1.3913e-4
RAAN
96.0501°
Arg perigee
52.7414°
Mean anomaly
307.3691°
Rev number
23,232

§ Raw data

STARLINK-37431 52118U 22029AG  26145.11155083  .00001928  00000+0  13913-3 0  99932 52118  53.2150  96.0501 0001242  52.7414 307.3691 15.08857652232326

JSON: /api/v1/satellites/52118 · /tle

For live sub-satellite position, see the globe view (requires WebGL).

§ Visibility from observer

Set your observer location to see the next 7 days of passes ≥ 10°. The values pass through the URL so the page stays shareable.

No JS? Fill the form by hand. The geolocation button needs JavaScript.